Time,TemperatureF,DewpointF,PressureIn,WindDirection,WindDirectionDegrees,WindSpeedMPH,WindSpeedGustMPH,Humidity,HourlyPrecipIn,Conditions,Clouds,dailyrainin,SoftwareType,DateUTC
2014-02-01 00:05:00,-999.9,-99.9,30.15,North,32767,-999.0,0.0,255,-99.99,,,0.00,Wunderground v.1.15,2014-02-01 09:05:00,
2014-02-01 00:15:00,-999.9,-99.9,30.16,North,32767,-999.0,0.0,255,-99.99,,,0.00,Wunderground v.1.15,2014-02-01 09:15:00,
2014-02-01 00:24:00,-999.9,-99.9,30.16,North,32767,-999.0,0.0,255,-99.99,,,0.00,Wunderground v.1.15,2014-02-01 09:24:00,
2014-02-01 00:30:00,-999.9,-99.9,30.16,North,32767,-999.0,0.0,255,-99.99,,,0.00,Wunderground v.1.15,2014-02-01 09:30:00,
2014-02-01 00:40:00,-999.9,-99.9,30.16,North,32767,-999.0,0.0,255,-99.99,,,0.00,Wunderground v.1.15,2014-02-01 09:40:00,
2014-02-01 00:50:00,29.0,-99.9,30.17,NNW,344,11.0,11.0,255,0.00,,,0.00,Wunderground v.1.15,2014-02-01 09:50:00,
2014-02-01 01:00:00,29.0,29.0,30.17,NNW,348,10.0,10.0,100,0.00,,,0.00,Wunderground v.1.15,2014-02-01 10:00:00,
2014-02-01 01:10:00,29.0,29.0,30.17,North,351,9.0,10.0,100,0.00,,,0.00,Wunderground v.1.15,2014-02-01 10:10:00,
2014-02-01 01:19:00,29.0,29.0,30.18,NNW,344,8.0,8.0,100,0.00,,,0.00,Wunderground v.1.15,2014-02-01 10:19:00,
2014-02-01 01:25:00,29.0,29.0,30.18,North,349,7.0,8.0,100,0.00,,,0.00,Wunderground v.1.15,2014-02-01 10:25:00,
2014-02-01 01:35:00,29.4,29.4,30.18,North,352,5.0,6.0,100,0.00,,,0.00,Wunderground v.1.15,2014-02-01 10:35:00,
2014-02-01 01:40:00,29.4,29.4,30.18,North,352,5.0,5.0,100,0.00,,,0.00,Wunderground v.1.15,2014-02-01 10:40:00,
2014-02-01 01:49:00,29.7,29.7,30.19,NNW,340,5.0,5.0,100,0.00,,,0.00,Wunderground v.1.15,2014-02-01 10:49:00,
2014-02-01 01:55:00,29.8,29.8,30.19,NNW,340,3.0,5.0,100,0.00,,,0.00,Wunderground v.1.15,2014-02-01 10:55:00,
2014-02-01 02:05:00,29.7,29.7,30.20,NNW,344,1.0,2.0,100,0.00,,,0.00,Wunderground v.1.15,2014-02-01 11:05:00,
2014-02-01 02:14:00,29.3,29.3,30.21,North,351,6.0,8.0,100,0.00,,,0.00,Wunderground v.1.15,2014-02-01 11:14:00,
2014-02-01 02:19:00,29.3,29.3,30.21,North,351,8.0,8.0,100,0.00,,,0.00,Wunderground v.1.15,2014-02-01 11:19:00,
2014-02-01 02:25:00,28.5,28.5,30.21,NW,310,10.0,10.0,100,0.00,,,0.00,Wunderground v.1.15,2014-02-01 11:25:00,
2014-02-01 02:34:00,28.8,28.8,30.22,NW,316,4.0,7.0,100,0.00,,,0.00,Wunderground v.1.15,2014-02-01 11:34:00,
2014-02-01 02:40:00,29.0,29.0,30.22,SW,217,1.0,2.0,100,0.00,,,0.00,Wunderground v.1.15,2014-02-01 11:40:00,
2014-02-01 02:49:00,29.0,29.0,30.22,SW,215,0.0,0.0,100,0.00,,,0.00,Wunderground v.1.15,2014-02-01 11:49:00,
2014-02-01 02:55:00,29.1,29.1,30.22,SW,215,0.0,0.0,100,0.00,,,0.00,Wunderground v.1.15,2014-02-01 11:55:00,
2014-02-01 03:05:00,29.1,29.1,30.22,SSE,156,1.0,3.0,100,0.00,,,0.00,Wunderground v.1.15,2014-02-01 12:05:00,
2014-02-01 03:14:00,28.8,28.8,30.23,SSE,156,1.0,2.0,100,0.00,,,0.00,Wunderground v.1.15,2014-02-01 12:14:00,
2014-02-01 03:20:00,28.8,28.8,30.23,SSE,156,1.0,2.0,100,0.00,,,0.00,Wunderground v.1.15,2014-02-01 12:20:00,
2014-02-01 03:29:00,28.7,28.7,30.24,SSE,156,0.0,0.0,100,0.00,,,0.00,Wunderground v.1.15,2014-02-01 12:29:00,
2014-02-01 03:35:00,28.5,28.5,30.24,SSE,156,0.0,0.0,100,0.00,,,0.00,Wunderground v.1.15,2014-02-01 12:35:00,
2014-02-01 03:45:00,28.1,28.1,30.25,North,352,10.0,10.0,100,0.00,,,0.00,Wunderground v.1.15,2014-02-01 12:45:00,
2014-02-01 03:54:00,27.6,27.6,30.25,NNE,25,5.0,6.0,100,0.00,,,0.00,Wunderground v.1.15,2014-02-01 12:54:00,
2014-02-01 03:59:00,27.3,27.3,30.25,North,356,8.0,8.0,100,0.00,,,0.00,Wunderground v.1.15,2014-02-01 12:59:00,
2014-02-01 04:05:00,27.2,27.2,30.25,NNE,32,7.0,8.0,100,0.00,,,0.00,Wunderground v.1.15,2014-02-01 13:05:00,
2014-02-01 04:14:00,26.7,26.7,30.26,North,354,6.0,11.0,100,0.00,,,0.00,Wunderground v.1.15,2014-02-01 13:14:00,
2014-02-01 04:20:00,26.9,26.9,30.26,NNW,328,8.0,8.0,100,0.00,,,0.00,Wunderground v.1.15,2014-02-01 13:20:00,
2014-02-01 04:30:00,27.8,27.8,30.27,NNE,19,4.0,5.0,100,0.00,,,0.00,Wunderground v.1.15,2014-02-01 13:30:00,
2014-02-01 04:39:00,26.3,26.3,30.27,North,9,9.0,16.0,100,0.00,,,0.00,Wunderground v.1.15,2014-02-01 13:39:00,
2014-02-01 04:45:00,26.3,26.3,30.27,North,356,10.0,16.0,100,0.00,,,0.00,Wunderground v.1.15,2014-02-01 13:45:00,
2014-02-01 04:54:00,26.3,26.3,30.27,NNE,22,2.0,9.0,100,0.00,,,0.00,Wunderground v.1.15,2014-02-01 13:54:00,
2014-02-01 05:00:00,26.7,26.7,30.27,NNE,28,4.0,7.0,100,0.00,,,0.00,Wunderground v.1.15,2014-02-01 14:00:00,
2014-02-01 05:09:00,26.6,26.6,30.27,NNE,28,7.0,7.0,100,0.00,,,0.00,Wunderground v.1.15,2014-02-01 14:09:00,
2014-02-01 05:15:00,25.4,25.4,30.27,North,11,9.0,11.0,100,0.00,,,0.00,Wunderground v.1.15,2014-02-01 14:15:00,
2014-02-01 05:24:00,24.8,24.8,30.27,NNE,25,8.0,11.0,100,0.00,,,0.00,Wunderground v.1.15,2014-02-01 14:24:00,
2014-02-01 05:30:00,24.8,24.6,30.28,North,8,9.0,10.0,99,0.00,,,0.00,Wunderground v.1.15,2014-02-01 14:30:00,
2014-02-01 05:39:00,25.6,25.6,30.28,NNE,20,8.0,8.0,100,0.00,,,0.00,Wunderground v.1.15,2014-02-01 14:39:00,
2014-02-01 05:45:00,25.3,25.1,30.28,NNE,20,9.0,13.0,99,0.00,,,0.00,Wunderground v.1.15,2014-02-01 14:45:00,
2014-02-01 05:55:00,25.3,25.3,30.28,ENE,63,7.0,9.0,100,0.00,,,0.00,Wunderground v.1.15,2014-02-01 14:55:00,
2014-02-01 06:05:00,25.1,25.1,30.29,ENE,68,5.0,8.0,100,0.00,,,0.00,Wunderground v.1.15,2014-02-01 15:05:00,
2014-02-01 06:14:00,24.8,24.8,30.30,ENE,74,5.0,6.0,100,0.00,,,0.00,Wunderground v.1.15,2014-02-01 15:14:00,
2014-02-01 06:24:00,24.2,24.2,30.30,ENE,67,4.0,8.0,100,0.00,,,0.00,Wunderground v.1.15,2014-02-01 15:24:00,
2014-02-01 06:34:00,23.8,23.6,30.30,NE,40,4.0,5.0,99,0.00,,,0.00,Wunderground v.1.15,2014-02-01 15:34:00,
2014-02-01 06:40:00,23.5,23.3,30.30,NNE,19,4.0,5.0,99,0.00,,,0.00,Wunderground v.1.15,2014-02-01 15:40:00,
2014-02-01 06:50:00,23.3,23.1,30.31,NNE,19,5.0,7.0,99,0.00,,,0.00,Wunderground v.1.15,2014-02-01 15:50:00,
2014-02-01 07:00:00,23.2,22.7,30.32,North,355,6.0,6.0,98,0.00,,,0.00,Wunderground v.1.15,2014-02-01 16:00:00,
2014-02-01 07:10:00,23.5,23.0,30.32,North,5,5.0,5.0,98,0.00,,,0.00,Wunderground v.1.15,2014-02-01 16:10:00,
2014-02-01 07:19:00,23.3,22.8,30.33,North,8,4.0,5.0,98,0.00,,,0.00,Wunderground v.1.15,2014-02-01 16:19:00,
2014-02-01 07:24:00,23.3,22.8,30.33,North,8,5.0,5.0,98,0.00,,,0.00,Wunderground v.1.15,2014-02-01 16:24:00,
2014-02-01 07:34:00,23.0,20.5,30.33,NNE,15,5.0,7.0,90,0.00,,,0.00,Wunderground v.1.15,2014-02-01 16:34:00,
2014-02-01 07:40:00,23.0,20.5,30.33,NNE,23,5.0,6.0,90,0.00,,,0.00,Wunderground v.1.15,2014-02-01 16:40:00,
2014-02-01 07:49:00,22.4,19.1,30.34,NNE,22,6.0,6.0,87,0.00,,,0.00,Wunderground v.1.15,2014-02-01 16:49:00,
2014-02-01 07:55:00,22.5,19.2,30.34,NNE,29,4.0,6.0,87,0.00,,,0.00,Wunderground v.1.15,2014-02-01 16:55:00,
2014-02-01 08:04:00,21.6,18.3,30.34,NNE,25,2.0,6.0,87,0.00,,,0.00,Wunderground v.1.15,2014-02-01 17:04:00,
2014-02-01 08:10:00,21.1,17.6,30.34,NNE,25,2.0,2.0,86,0.00,,,0.00,Wunderground v.1.15,2014-02-01 17:10:00,
2014-02-01 08:19:00,20.5,17.2,30.35,ENE,60,3.0,3.0,87,0.00,,,0.00,Wunderground v.1.15,2014-02-01 17:19:00,
2014-02-01 08:25:00,19.4,15.9,30.35,NNE,25,4.0,6.0,86,0.00,,,0.00,Wunderground v.1.15,2014-02-01 17:25:00,
2014-02-01 08:35:00,20.0,16.2,30.35,NE,37,5.0,5.0,85,0.00,,,0.00,Wunderground v.1.15,2014-02-01 17:35:00,
2014-02-01 08:45:00,19.9,15.8,30.35,NE,37,3.0,3.0,84,0.00,,,0.00,Wunderground v.1.15,2014-02-01 17:45:00,
2014-02-01 08:54:00,19.4,15.4,30.35,NNE,30,1.0,2.0,84,0.00,,,0.00,Wunderground v.1.15,2014-02-01 17:54:00,
2014-02-01 08:59:00,19.4,15.4,30.36,NNE,30,1.0,1.0,84,0.00,,,0.00,Wunderground v.1.15,2014-02-01 17:59:00,
2014-02-01 09:05:00,-999.9,-99.9,30.36,North,32767,-999.0,1.0,255,-99.99,,,0.00,Wunderground v.1.15,2014-02-01 18:05:00,
2014-02-01 09:14:00,-999.9,-99.9,30.36,North,32767,-999.0,0.0,255,-99.99,,,0.00,Wunderground v.1.15,2014-02-01 18:14:00,
2014-02-01 09:20:00,-999.9,-99.9,30.36,North,32767,-999.0,0.0,255,-99.99,,,0.00,Wunderground v.1.15,2014-02-01 18:20:00,
2014-02-01 09:30:00,-999.9,-99.9,30.37,North,32767,-999.0,0.0,255,-99.99,,,0.00,Wunderground v.1.15,2014-02-01 18:30:00,
2014-02-01 09:39:00,18.0,14.3,30.37,NE,54,1.0,1.0,85,0.00,,,0.00,Wunderground v.1.15,2014-02-01 18:39:00,
2014-02-01 09:44:00,17.8,14.3,30.38,NE,54,1.0,1.0,86,0.00,,,0.00,Wunderground v.1.15,2014-02-01 18:44:00,
2014-02-01 09:50:00,17.2,13.7,30.38,NNE,12,2.0,3.0,86,0.00,,,0.00,Wunderground v.1.15,2014-02-01 18:50:00,
2014-02-01 10:00:00,17.2,14.0,30.39,North,2,5.0,5.0,87,0.00,,,0.00,Wunderground v.1.15,2014-02-01 19:00:00,
2014-02-01 10:10:00,16.9,13.4,30.39,NNE,16,3.0,3.0,86,0.00,,,0.00,Wunderground v.1.15,2014-02-01 19:10:00,
2014-02-01 10:20:00,16.9,13.2,30.39,NNE,16,1.0,1.0,85,0.00,,,0.00,Wunderground v.1.15,2014-02-01 19:20:00,
2014-02-01 10:30:00,17.5,13.5,30.40,North,6,4.0,5.0,84,0.00,,,0.00,Wunderground v.1.15,2014-02-01 19:30:00,
2014-02-01 10:39:00,18.1,13.8,30.40,ENE,57,3.0,3.0,83,0.00,,,0.00,Wunderground v.1.15,2014-02-01 19:39:00,
2014-02-01 10:45:00,16.9,12.9,30.41,ENE,77,2.0,3.0,84,0.00,,,0.00,Wunderground v.1.15,2014-02-01 19:45:00,
2014-02-01 10:55:00,16.1,12.7,30.41,NNE,22,3.0,6.0,86,0.00,,,0.00,Wunderground v.1.15,2014-02-01 19:55:00,
2014-02-01 11:04:00,15.6,12.4,30.41,ENE,74,3.0,6.0,87,0.00,,,0.00,Wunderground v.1.15,2014-02-01 20:04:00,
2014-02-01 11:10:00,15.6,12.4,30.41,ENE,60,3.0,5.0,87,0.00,,,0.00,Wunderground v.1.15,2014-02-01 20:10:00,
2014-02-01 11:20:00,15.7,12.5,30.42,ENE,68,3.0,3.0,87,0.00,,,0.00,Wunderground v.1.15,2014-02-01 20:20:00,
2014-02-01 11:30:00,16.1,12.9,30.43,ENE,68,2.0,3.0,87,0.00,,,0.00,Wunderground v.1.15,2014-02-01 20:30:00,
2014-02-01 11:40:00,16.9,13.7,30.43,NE,56,2.0,3.0,87,0.00,,,0.00,Wunderground v.1.15,2014-02-01 20:40:00,
2014-02-01 11:49:00,17.8,13.8,30.43,ENE,57,2.0,2.0,84,0.00,,,0.00,Wunderground v.1.15,2014-02-01 20:49:00,
2014-02-01 11:59:00,17.2,13.2,30.44,NNE,28,3.0,5.0,84,0.00,,,0.00,Wunderground v.1.15,2014-02-01 20:59:00,
2014-02-01 12:05:00,16.9,13.2,30.44,NNE,18,4.0,5.0,85,0.00,,,0.00,Wunderground v.1.15,2014-02-01 21:05:00,
2014-02-01 12:15:00,17.7,14.2,30.45,NE,52,2.0,5.0,86,0.00,,,0.00,Wunderground v.1.15,2014-02-01 21:15:00,
2014-02-01 12:25:00,18.3,14.8,30.45,NE,49,2.0,3.0,86,0.00,,,0.00,Wunderground v.1.15,2014-02-01 21:25:00,
2014-02-01 12:35:00,19.5,15.2,30.45,North,8,4.0,5.0,83,0.00,,,0.00,Wunderground v.1.15,2014-02-01 21:35:00,
2014-02-01 12:45:00,20.3,15.4,30.46,North,5,5.0,5.0,81,0.00,,,0.00,Wunderground v.1.15,2014-02-01 21:45:00,
2014-02-01 12:55:00,20.2,15.3,30.46,NNE,16,3.0,4.0,81,0.00,,,0.00,Wunderground v.1.15,2014-02-01 21:55:00,
2014-02-01 13:04:00,20.2,15.6,30.46,ENE,60,1.0,2.0,82,0.00,,,0.00,Wunderground v.1.15,2014-02-01 22:04:00,
2014-02-01 13:10:00,19.4,15.1,30.46,NNE,32,2.0,5.0,83,0.00,,,0.00,Wunderground v.1.15,2014-02-01 22:10:00,
2014-02-01 13:20:00,18.6,14.8,30.47,NNE,30,3.0,3.0,85,0.00,,,0.00,Wunderground v.1.15,2014-02-01 22:20:00,
2014-02-01 13:30:00,19.2,15.4,30.47,ENE,57,1.0,1.0,85,0.00,,,0.00,Wunderground v.1.15,2014-02-01 22:30:00,
2014-02-01 13:40:00,19.5,15.7,30.47,ENE,57,0.0,0.0,85,0.00,,,0.00,Wunderground v.1.15,2014-02-01 22:40:00,
2014-02-01 13:49:00,19.5,15.7,30.48,ENE,57,1.0,1.0,85,0.00,,,0.00,Wunderground v.1.15,2014-02-01 22:49:00,
2014-02-01 13:59:00,20.5,17.0,30.49,ENE,57,0.0,0.0,86,0.00,,,0.00,Wunderground v.1.15,2014-02-01 22:59:00,
2014-02-01 14:04:00,21.1,17.6,30.49,ENE,57,0.0,0.0,86,0.00,,,0.00,Wunderground v.1.15,2014-02-01 23:04:00,
2014-02-01 14:14:00,21.9,17.8,30.49,ENE,57,0.0,0.0,84,0.00,,,0.00,Wunderground v.1.15,2014-02-01 23:14:00,
2014-02-01 14:20:00,22.1,17.7,30.49,ENE,57,0.0,2.0,83,0.00,,,0.00,Wunderground v.1.15,2014-02-01 23:20:00,
2014-02-01 14:30:00,21.6,15.8,30.49,NNE,18,1.0,1.0,78,0.00,,,0.00,Wunderground v.1.15,2014-02-01 23:30:00,
2014-02-01 14:39:00,22.2,16.7,30.49,NNE,18,0.0,0.0,79,0.00,,,0.00,Wunderground v.1.15,2014-02-01 23:39:00,
2014-02-01 14:49:00,22.5,16.4,30.49,NNE,18,0.0,0.0,77,0.00,,,0.00,Wunderground v.1.15,2014-02-01 23:49:00,
2014-02-01 14:54:00,22.9,16.5,30.49,NNE,18,1.0,2.0,76,0.00,,,0.00,Wunderground v.1.15,2014-02-01 23:54:00,
2014-02-01 14:59:00,21.9,15.2,30.50,NNE,18,1.0,1.0,75,0.00,,,0.00,Wunderground v.1.15,2014-02-01 23:59:00,
2014-02-01 15:05:00,21.9,15.5,30.50,NNE,18,0.0,1.0,76,0.00,,,0.00,Wunderground v.1.15,2014-02-02 00:05:00,
2014-02-01 15:15:00,22.5,17.0,30.50,NNE,19,0.0,0.0,79,0.00,,,0.00,Wunderground v.1.15,2014-02-02 00:15:00,
2014-02-01 15:24:00,21.9,16.7,30.50,NNE,19,1.0,2.0,80,0.00,,,0.00,Wunderground v.1.15,2014-02-02 00:24:00,
2014-02-01 15:29:00,21.9,16.7,30.51,NNE,19,1.0,1.0,80,0.00,,,0.00,Wunderground v.1.15,2014-02-02 00:29:00,
2014-02-01 15:39:00,21.0,15.8,30.51,NNE,19,1.0,1.0,80,0.00,,,0.00,Wunderground v.1.15,2014-02-02 00:39:00,
2014-02-01 15:44:00,21.4,16.2,30.51,NNE,19,0.0,1.0,80,0.00,,,0.00,Wunderground v.1.15,2014-02-02 00:44:00,
2014-02-01 15:55:00,21.0,15.2,30.51,NNE,19,1.0,2.0,78,0.00,,,0.00,Wunderground v.1.15,2014-02-02 00:55:00,
2014-02-01 16:04:00,20.6,14.5,30.51,NNE,13,0.0,2.0,77,0.00,,,0.00,Wunderground v.1.15,2014-02-02 01:04:00,
2014-02-01 16:10:00,19.7,13.4,30.51,NNE,13,1.0,1.0,76,0.00,,,0.00,Wunderground v.1.15,2014-02-02 01:10:00,
2014-02-01 16:20:00,19.2,12.3,30.52,North,356,4.0,4.0,74,0.00,,,0.00,Wunderground v.1.15,2014-02-02 01:20:00,
2014-02-01 16:30:00,19.9,14.1,30.52,North,356,0.0,0.0,78,0.00,,,0.00,Wunderground v.1.15,2014-02-02 01:30:00,
2014-02-01 16:40:00,18.9,14.0,30.52,North,356,1.0,1.0,81,0.00,,,0.00,Wunderground v.1.15,2014-02-02 01:40:00,
2014-02-01 16:50:00,18.6,13.5,30.53,North,356,0.0,0.0,80,0.00,,,0.00,Wunderground v.1.15,2014-02-02 01:50:00,
2014-02-01 17:00:00,17.3,11.6,30.54,North,356,0.0,0.0,78,0.00,,,0.00,Wunderground v.1.15,2014-02-02 02:00:00,
2014-02-01 17:10:00,16.1,11.0,30.54,North,356,1.0,1.0,80,0.00,,,0.00,Wunderground v.1.15,2014-02-02 02:10:00,
2014-02-01 17:20:00,15.2,10.7,30.54,North,356,0.0,0.0,82,0.00,,,0.00,Wunderground v.1.15,2014-02-02 02:20:00,
2014-02-01 17:30:00,15.1,9.5,30.54,North,358,2.0,2.0,78,0.00,,,0.00,Wunderground v.1.15,2014-02-02 02:30:00,
2014-02-01 17:39:00,15.1,9.5,30.54,North,359,1.0,1.0,78,0.00,,,0.00,Wunderground v.1.15,2014-02-02 02:39:00,
2014-02-01 17:44:00,14.6,9.0,30.55,North,359,0.0,1.0,78,0.00,,,0.00,Wunderground v.1.15,2014-02-02 02:44:00,
2014-02-01 17:54:00,13.8,9.3,30.55,North,359,0.0,2.0,82,0.00,,,0.00,Wunderground v.1.15,2014-02-02 02:54:00,
2014-02-01 17:59:00,13.6,9.1,30.55,North,359,2.0,2.0,82,0.00,,,0.00,Wunderground v.1.15,2014-02-02 02:59:00,
2014-02-01 18:05:00,14.0,9.2,30.55,North,359,1.0,2.0,81,0.00,,,0.00,Wunderground v.1.15,2014-02-02 03:05:00,
2014-02-01 18:14:00,14.4,10.2,30.55,North,359,1.0,2.0,83,0.00,,,0.00,Wunderground v.1.15,2014-02-02 03:14:00,
2014-02-01 18:24:00,12.1,7.4,30.55,North,359,0.0,0.0,81,0.00,,,0.00,Wunderground v.1.15,2014-02-02 03:24:00,
2014-02-01 18:30:00,11.7,7.5,30.56,North,359,0.0,0.0,83,0.00,,,0.00,Wunderground v.1.15,2014-02-02 03:30:00,
2014-02-01 18:39:00,12.4,8.5,30.56,North,359,0.0,0.0,84,0.00,,,0.00,Wunderground v.1.15,2014-02-02 03:39:00,
2014-02-01 18:49:00,11.7,8.1,30.56,North,359,1.0,2.0,85,0.00,,,0.00,Wunderground v.1.15,2014-02-02 03:49:00,
2014-02-01 18:59:00,12.6,8.9,30.56,North,359,2.0,2.0,85,0.00,,,0.00,Wunderground v.1.15,2014-02-02 03:59:00,
2014-02-01 19:09:00,12.1,8.5,30.57,North,2,2.0,2.0,85,0.00,,,0.00,Wunderground v.1.15,2014-02-02 04:09:00,
2014-02-01 19:15:00,11.1,7.2,30.58,North,2,2.0,3.0,84,0.00,,,0.00,Wunderground v.1.15,2014-02-02 04:15:00,
2014-02-01 19:20:00,10.7,7.1,30.58,North,2,2.0,2.0,85,0.00,,,0.00,Wunderground v.1.15,2014-02-02 04:20:00,
2014-02-01 19:30:00,10.9,7.5,30.59,North,2,1.0,2.0,86,0.00,,,0.00,Wunderground v.1.15,2014-02-02 04:30:00,
2014-02-01 19:40:00,11.1,7.7,30.59,North,2,1.0,1.0,86,0.00,,,0.00,Wunderground v.1.15,2014-02-02 04:40:00,
2014-02-01 19:45:00,11.1,7.7,30.59,North,2,0.0,1.0,86,0.00,,,0.00,Wunderground v.1.15,2014-02-02 04:45:00,
2014-02-01 19:50:00,10.7,7.3,30.59,North,2,0.0,1.0,86,0.00,,,0.00,Wunderground v.1.15,2014-02-02 04:50:00,
2014-02-01 20:00:00,10.2,6.8,30.59,North,2,2.0,3.0,86,0.00,,,0.00,Wunderground v.1.15,2014-02-02 05:00:00,
2014-02-01 20:05:00,10.2,6.8,30.59,North,2,3.0,3.0,86,0.00,,,0.00,Wunderground v.1.15,2014-02-02 05:05:00,
2014-02-01 20:10:00,10.5,7.1,30.59,North,2,0.0,0.0,86,0.00,,,0.00,Wunderground v.1.15,2014-02-02 05:10:00,
2014-02-01 20:15:00,10.0,6.4,30.60,North,2,2.0,2.0,85,0.00,,,0.00,Wunderground v.1.15,2014-02-02 05:15:00,
2014-02-01 20:20:00,9.0,5.4,30.60,North,2,1.0,1.0,85,0.00,,,0.00,Wunderground v.1.15,2014-02-02 05:20:00,
2014-02-01 20:25:00,8.6,5.0,30.60,North,2,0.0,1.0,85,0.00,,,0.00,Wunderground v.1.15,2014-02-02 05:25:00,
2014-02-01 20:30:00,8.6,5.3,30.60,North,2,0.0,0.0,86,0.00,,,0.00,Wunderground v.1.15,2014-02-02 05:30:00,
2014-02-01 20:41:00,8.8,5.7,30.60,North,2,0.0,0.0,87,0.00,,,0.00,Wunderground v.1.15,2014-02-02 05:41:00,
2014-02-01 20:50:00,9.2,6.4,30.60,North,2,2.0,2.0,88,0.00,,,0.00,Wunderground v.1.15,2014-02-02 05:50:00,
2014-02-01 21:00:00,8.4,5.1,30.61,North,2,1.0,1.0,86,0.00,,,0.00,Wunderground v.1.15,2014-02-02 06:00:00,
2014-02-01 21:10:00,9.3,6.5,30.61,North,2,1.0,1.0,88,0.00,,,0.00,Wunderground v.1.15,2014-02-02 06:10:00,
2014-02-01 21:20:00,9.9,7.1,30.61,North,2,1.0,1.0,88,0.00,,,0.00,Wunderground v.1.15,2014-02-02 06:20:00,
2014-02-01 21:26:00,10.2,7.4,30.61,North,2,2.0,3.0,88,0.00,,,0.00,Wunderground v.1.15,2014-02-02 06:26:00,
2014-02-01 21:35:00,10.0,7.2,30.61,North,2,3.0,3.0,88,0.00,,,0.00,Wunderground v.1.15,2014-02-02 06:35:00,
2014-02-01 21:45:00,10.0,6.9,30.61,North,11,3.0,4.0,87,0.00,,,0.00,Wunderground v.1.15,2014-02-02 06:45:00,
2014-02-01 21:55:00,10.0,6.9,30.61,North,11,3.0,4.0,87,0.00,,,0.00,Wunderground v.1.15,2014-02-02 06:55:00,
2014-02-01 22:00:00,9.9,6.8,30.61,North,11,3.0,3.0,87,0.00,,,0.00,Wunderground v.1.15,2014-02-02 07:00:00,
2014-02-01 22:10:00,9.2,5.9,30.61,North,11,2.0,2.0,86,0.00,,,0.00,Wunderground v.1.15,2014-02-02 07:10:00,
2014-02-01 22:20:00,10.0,6.9,30.62,NNE,15,5.0,5.0,87,0.00,,,0.00,Wunderground v.1.15,2014-02-02 07:20:00,
2014-02-01 22:30:00,9.9,6.6,30.63,ENE,61,3.0,3.0,86,0.00,,,0.00,Wunderground v.1.15,2014-02-02 07:30:00,
2014-02-01 22:40:00,8.6,5.0,30.63,NNE,26,3.0,3.0,85,0.00,,,0.00,Wunderground v.1.15,2014-02-02 07:40:00,
2014-02-01 22:50:00,8.3,4.7,30.64,NNE,25,0.0,2.0,85,0.00,,,0.00,Wunderground v.1.15,2014-02-02 07:50:00,
2014-02-01 23:00:00,8.3,5.0,30.64,NNE,33,1.0,1.0,86,0.00,,,0.00,Wunderground v.1.15,2014-02-02 08:00:00,
2014-02-01 23:05:00,8.6,5.3,30.64,NNE,33,0.0,1.0,86,0.00,,,0.00,Wunderground v.1.15,2014-02-02 08:05:00,
2014-02-01 23:10:00,8.4,5.1,30.64,NNE,33,0.0,0.0,86,0.00,,,0.00,Wunderground v.1.15,2014-02-02 08:10:00,
2014-02-01 23:20:00,7.9,4.6,30.65,NNE,33,0.0,0.0,86,0.00,,,0.00,Wunderground v.1.15,2014-02-02 08:20:00,
2014-02-01 23:30:00,8.4,5.1,30.65,NNE,33,1.0,1.0,86,0.00,,,0.00,Wunderground v.1.15,2014-02-02 08:30:00,
2014-02-01 23:40:00,7.4,3.6,30.65,NNE,33,0.0,0.0,84,0.00,,,0.00,Wunderground v.1.15,2014-02-02 08:40:00,
2014-02-01 23:45:00,6.9,3.3,30.65,NNE,33,0.0,0.0,85,0.00,,,0.00,Wunderground v.1.15,2014-02-02 08:45:00,
2014-02-01 23:55:00,6.7,3.1,30.65,NNE,33,0.0,0.0,85,0.00,,,0.00,Wunderground v.1.15,2014-02-02 08:55:00,